Williams, AZ

7:21 PM MST on May 28, 2017 (GMT -0700)
Williams

Weather History for KCMR - January, 2012

Change the Weather History Date:

Friday, January 27, 2012

  Actual Average (K40G) Record (K40G)
Temperature  
Mean Temperature 37 °F -  
Max Temperature 48 °F 46 °F 55 °F (1998)
Min Temperature 26 °F 33 °F 32 °F (1997)
Degree Days  
Heating Degree Days 28    
Moisture  
Dew Point 19 °F    
Average Humidity 49    
Maximum Humidity 86    
Minimum Humidity 20    
Precipitation  
Precipitation 0.00 in - - ()
Sea Level Pressure  
Sea Level Pressure 30.23 in    
Wind  
Wind Speed 7 mph (NNE)    
Max Wind Speed 20 mph    
Max Gust Speed 26 mph    
Visibility 10 miles    
Events      
Averages and records for this station are not official NWS values.
T = Trace of Precipitation, MM = Missing Value Source: NWS Daily Summary

Daily Weather History Graph

Daily Weather History Graph

Search for Another Location

Airport or City:

Trip Planner

Search our weather history database for the weather conditions in past years. The results will help you decide how hot, cold, wet, or windy it might be!

Date:

Astronomy

Jan. 27, 2012 Rise Set
Actual Time 7:31 AM MST 5:51 PM MST
Civil Twilight 7:04 AM MST 6:18 PM MST
Nautical Twilight 6:34 AM MST 6:49 PM MST
Astronomical Twilight 6:04 AM MST 7:19 PM MST
Moon 9:40 AM MST (1/27) 10:32 PM MST (1/27)
Length of Visible Light 11h 13m
Length of Day
10h 19m
Waxing Crescent, 20% of the Moon is Illuminated
Jan 27
Waxing Crescent
Jan 30
First Quarter
Feb 7
Full
Feb 14
Last Quarter
Feb 21
New

Hourly Weather History & Observations

Time (MST) Temp. Windchill Dew Point Humidity Pressure Visibility Wind Dir Wind Speed Gust Speed Precip Events Conditions
12:15 AM 39.2 °F 35.9 °F 24.8 °F 56% 30.19 in 10.0 mi WSW 4.6 mph - N/A   Clear
12:35 AM 39.2 °F 35.0 °F 24.8 °F 56% 30.18 in 10.0 mi WSW 5.8 mph - N/A   Clear
12:55 AM 39.2 °F 35.0 °F 24.8 °F 56% 30.18 in 10.0 mi WSW 5.8 mph - N/A   Clear
1:15 AM 39.2 °F 35.9 °F 24.8 °F 56% 30.17 in 10.0 mi West 4.6 mph - N/A   Clear
1:35 AM 39.2 °F 35.0 °F 24.8 °F 56% 30.17 in 10.0 mi West 5.8 mph - N/A   Clear
1:55 AM 39.2 °F 34.2 °F 24.8 °F 56% 30.17 in 10.0 mi West 6.9 mph - N/A   Clear
2:15 AM 37.4 °F 32.1 °F 24.8 °F 60% 30.18 in 10.0 mi West 6.9 mph - N/A   Clear
2:35 AM 33.8 °F - 24.8 °F 70% 30.17 in 10.0 mi Calm Calm - N/A   Clear
3:15 AM 37.4 °F 34.9 °F 24.8 °F 60% 30.17 in 10.0 mi West 3.5 mph - N/A   Clear
3:35 AM 32.0 °F 27.5 °F 24.8 °F 75% 30.18 in 10.0 mi NW 4.6 mph - N/A   Clear
3:55 AM 32.0 °F 28.7 °F 24.8 °F 75% 30.17 in 10.0 mi NW 3.5 mph - N/A   Clear
4:15 AM 30.2 °F - 23.0 °F 75% 30.17 in 10.0 mi Calm Calm - N/A   Clear
4:35 AM 28.4 °F - 24.8 °F 86% 30.18 in 10.0 mi Calm Calm - N/A   Clear
4:55 AM 28.4 °F - 23.0 °F 80% 30.18 in 10.0 mi Calm Calm - N/A   Clear
5:35 AM 30.2 °F - 24.8 °F 80% 30.20 in 10.0 mi Calm Calm - N/A   Clear
6:15 AM 32.0 °F 28.7 °F 26.6 °F 80% 30.21 in 10.0 mi North 3.5 mph - N/A   Clear
6:35 AM 32.0 °F - 26.6 °F 80% 30.21 in 10.0 mi Calm Calm - N/A   Clear
6:55 AM 32.0 °F 28.7 °F 26.6 °F 80% 30.21 in 10.0 mi North 3.5 mph - N/A   Clear
7:15 AM 32.0 °F - 26.6 °F 80% 30.22 in 10.0 mi Calm Calm - N/A   Clear
7:35 AM 33.8 °F 28.6 °F 28.4 °F 81% 30.22 in 10.0 mi North 5.8 mph - N/A   Clear
7:55 AM 26.6 °F 22.6 °F 23.0 °F 86% 30.23 in 10.0 mi SE 3.5 mph - N/A   Clear
8:15 AM 30.2 °F - 26.6 °F 86% 30.24 in 10.0 mi Calm Calm - N/A   Clear
8:35 AM 33.8 °F - 28.4 °F 81% 30.24 in 10.0 mi Calm Calm - N/A   Clear
8:55 AM 35.6 °F - 28.4 °F 75% 30.25 in 10.0 mi Calm Calm - N/A   Clear
9:15 AM 37.4 °F 33.8 °F 28.4 °F 70% 30.26 in 10.0 mi ENE 4.6 mph - N/A   Clear
9:35 AM 41.0 °F 35.2 °F 26.6 °F 57% 30.27 in 10.0 mi NE 9.2 mph - N/A   Clear
9:55 AM 42.8 °F 34.3 °F 17.6 °F 36% 30.27 in 10.0 mi NE 19.6 mph 26.5 mph N/A   Clear
10:15 AM 44.6 °F 36.9 °F 17.6 °F 34% 30.28 in 10.0 mi NNE 18.4 mph 21.9 mph N/A   Clear
10:55 AM 44.6 °F 36.6 °F 14.0 °F 29% 30.29 in 10.0 mi NE 19.6 mph 24.2 mph N/A   Clear
11:15 AM 44.6 °F 37.8 °F 15.8 °F 31% 30.28 in 10.0 mi NE 15.0 mph 24.2 mph N/A   Clear
11:35 AM 46.4 °F 40.1 °F 10.4 °F 23% 30.27 in 10.0 mi NE 15.0 mph 20.7 mph N/A   Clear
11:55 AM 46.4 °F 40.7 °F 14.0 °F 27% 30.26 in 10.0 mi NE 12.7 mph 18.4 mph N/A   Clear
12:15 PM 46.4 °F 40.7 °F 14.0 °F 27% 30.25 in 10.0 mi NNE 12.7 mph 19.6 mph N/A   Clear
12:35 PM 46.4 °F 40.4 °F 15.8 °F 29% 30.24 in 10.0 mi NNE 13.8 mph 18.4 mph N/A   Clear
12:55 PM 46.4 °F 40.7 °F 17.6 °F 32% 30.24 in 10.0 mi NNE 12.7 mph 17.3 mph N/A   Clear
1:15 PM 46.4 °F 41.1 °F 17.6 °F 32% 30.24 in 10.0 mi NE 11.5 mph 17.3 mph N/A   Clear
1:35 PM 46.4 °F 41.5 °F 15.8 °F 29% 30.23 in 10.0 mi NE 10.4 mph - N/A   Clear
1:55 PM 46.4 °F 40.4 °F 15.8 °F 29% 30.23 in 10.0 mi NE 13.8 mph - N/A   Clear
2:15 PM 48.2 °F - 15.8 °F 27% 30.23 in 10.0 mi NNE 12.7 mph - N/A   Clear
2:35 PM 46.4 °F 41.9 °F 15.8 °F 29% 30.23 in 10.0 mi NNE 9.2 mph - N/A   Clear
2:55 PM 46.4 °F 40.4 °F 14.0 °F 27% 30.23 in 10.0 mi NE 13.8 mph - N/A   Clear
3:15 PM 46.4 °F 41.1 °F 10.4 °F 23% 30.23 in 10.0 mi NE 11.5 mph - N/A   Clear
3:35 PM 46.4 °F 40.1 °F 8.6 °F 22% 30.23 in 10.0 mi NE 15.0 mph - N/A   Clear
3:55 PM 46.4 °F 40.4 °F 6.8 °F 20% 30.23 in 10.0 mi NE 13.8 mph 20.7 mph N/A   Clear
4:35 PM 44.6 °F 37.4 °F 5.0 °F 20% 30.24 in 10.0 mi NE 16.1 mph - N/A   Clear
4:55 PM 41.0 °F 33.1 °F 6.8 °F 24% 30.25 in 10.0 mi NE 15.0 mph - N/A   Clear
5:15 PM 41.0 °F 33.1 °F 6.8 °F 24% 30.25 in 10.0 mi NE 15.0 mph - N/A   Clear
5:35 PM 39.2 °F 31.2 °F 8.6 °F 28% 30.26 in 10.0 mi NE 13.8 mph - N/A   Clear
5:55 PM 37.4 °F 30.3 °F 10.4 °F 33% 30.27 in 10.0 mi NE 10.4 mph - N/A   Clear
6:15 PM 37.4 °F 31.4 °F 10.4 °F 33% 30.28 in 10.0 mi NNE 8.1 mph - N/A   Clear
6:35 PM 35.6 °F 31.7 °F 10.4 °F 35% 30.29 in 10.0 mi NNE 4.6 mph - N/A   Clear
6:55 PM 35.6 °F 31.7 °F 10.4 °F 35% 30.30 in 10.0 mi NE 4.6 mph - N/A   Clear
7:15 PM 33.8 °F - 10.4 °F 38% 30.31 in 10.0 mi Calm Calm - N/A   Clear
7:35 PM 32.0 °F 27.5 °F 10.4 °F 41% 30.32 in 10.0 mi North 4.6 mph - N/A   Clear
8:15 PM 32.0 °F 24.8 °F 10.4 °F 41% 30.32 in 10.0 mi ENE 8.1 mph - N/A   Clear
8:55 PM 32.0 °F 25.6 °F 8.6 °F 38% 30.32 in 10.0 mi NE 6.9 mph - N/A   Clear
9:15 PM 32.0 °F 24.8 °F 8.6 °F 38% 30.33 in 10.0 mi NNE 8.1 mph 16.1 mph N/A   Clear
9:35 PM 32.0 °F 22.5 °F 6.8 °F 35% 30.34 in 10.0 mi NE 12.7 mph - N/A   Clear
9:55 PM 32.0 °F 23.6 °F 5.0 °F 32% 30.33 in 10.0 mi NE 10.4 mph 17.3 mph N/A   Clear
10:15 PM 30.2 °F 23.4 °F 5.0 °F 34% 30.33 in 10.0 mi NE 6.9 mph - N/A   Clear
10:35 PM 30.2 °F 25.4 °F 1.4 °F 29% 30.33 in 10.0 mi ENE 4.6 mph - N/A   Clear
10:55 PM 30.2 °F 26.7 °F -0.4 °F 27% 30.33 in 10.0 mi East 3.5 mph - N/A   Clear
11:15 PM 30.2 °F 25.4 °F -2.2 °F 25% 30.33 in 10.0 mi NE 4.6 mph - N/A   Clear
11:35 PM 28.4 °F - -2.2 °F 27% 30.34 in 10.0 mi Calm Calm - N/A   Clear
11:55 PM 24.8 °F 19.1 °F 1.4 °F 36% 30.34 in 10.0 mi SE 4.6 mph - N/A   Clear